Tracking 35334 objects as of 13-Sep-2026
HD Live streaming from Space Station
objects crossing your sky now

COSMOS 2556

Track COSMOS 2556 now!
10-day predictions


NORAD ID: 52713
Int'l Code: 2022-054A
Launch date: May 19, 2022
Source: Commonwealth of Independent States (former USSR) (CIS)
Launch site: PLESETSK MISSILE AND SPACE COMPLEX (PKMTR)
Your satellite tracking list
Your tracking list is empty




NASA's NSSDC Master Catalog

Two Line Element Set (TLE):
1 52713U 22054A   26256.27271686  .00001906  00000-0  76062-4 0  9992
2 52713  97.6370 207.8451 0002085 103.1676 256.9795 15.26466175240178
Source of the keplerian elements: AFSPC